Weather Roundup
Issued by NWS

Home | Current Version | Previous Version | Text Only | Print | Product List | Glossary On
Versions: 1 2 3 4 5 6 7 8 9 10 11 12 13 14 15 16 17 18 19 20 21 22 23 24 25 26 27 28 29 30 31 32 33 34 35 36 37 38 39 40 41 42 43 44 45 46 47 48 49 50
000
NZUS93 KARX 240910
HRRWXR

CURRENT HOURLY OBSERVATIONS ACROSS
MUCH OF THE UPPER MISSISSIPPI VALLEY
NATIONAL WEATHER SERVICE LA CROSSE WI
400 AM CDT SUN SEP 24 2017


...SOUTHEAST MINNESOTA...


CITY           SKY/WX    TMP DP  RH WIND       PRES   REMARKS
ROCHESTER      CLEAR     68  62  81 S7        30.00S
ROCHESTER/MAYO FAIR      72  61  70 SE6       29.99F
WINONA         CLEAR     77  63  61 CALM      29.99S
AUSTIN         CLEAR     70  61  73 SE3       29.98F
ALBERT LEA     CLEAR     73  64  73 S9        29.97S
DODGE CENTER   CLEAR     66  61  82 SE6       29.98F
PRESTON        CLEAR     69  61  76 S7        30.02S
OWATONNA       CLOUDY    72  63  73 SE9       29.96S
FARIBAULT      CLOUDY    68  63  83 SE3       29.95F
$$

...ELSEWHERE IN MINNESOTA...


CITY           SKY/WX    TMP DP  RH WIND       PRES   REMARKS
MINNEAPOLIS    PTCLDY    76  65  68 S10       29.93F
INTNL FALLS    LGT RAIN  57  56  96 E8        29.95F
DULUTH         PTCLDY    64  64 100 E8        29.97S
RED WING       PTCLDY    72  61  68 SE6       29.95F
REDWOOD FALLS  FOG       61  60  97 SE3       29.91F VSB 1/4
MANKATO        CLEAR     71  64  78 S7        29.94S
WORTHINGTON    PTCLDY    59  59 100 CALM      29.93F FOG
FAIRMONT       CLEAR     68  64  87 S7        29.94S
$$

...SOUTHWEST WISCONSIN...


CITY           SKY/WX    TMP DP  RH WIND       PRES   REMARKS
LA CROSSE      CLEAR     72  67  84 SE5       30.01R
PRAIRIE DU CHI CLEAR     67  62  85 CALM      30.02F
BOSCOBEL       CLEAR     65  63  93 CALM      30.03S FOG
LONE ROCK      CLEAR     63  63 100 CALM      30.04S FOG
PLATTEVILLE    CLEAR     69  65  86 E6        30.05S
FORT MC COY    CLEAR     61  60  96 CALM      30.04S
CAMP DOUGLAS   CLEAR     64  64  99 S7        30.04S
MAUSTON-NEW LI SUNNY     65  64  95 SE5       30.04S
VIROQUA        FAIR      69  65  87 SE7       30.05S
WIS DELLS      CLEAR     69  62  77 S7        30.06S
$$

...ELSEWHERE IN WISCONSIN...


CITY           SKY/WX    TMP DP  RH WIND       PRES   REMARKS
MILWAUKEE      CLEAR     71  67  87 SE3       30.07S
MADISON        CLEAR     73  66  78 S3        30.05F
GREEN BAY      CLEAR     71  66  84 S5        30.06S
EAU CLAIRE     PTCLDY    69  63  81 S3        29.99S
BLACK RVR FLS  FAIR      61  61 100 CALM      30.02S FOG
MEDFORD        CLEAR     65  61  88 S6        30.06S
WAUSAU         CLEAR     66  64  93 SE3       30.05S
WIS RAPIDS     CLEAR     68  63  84 S3        30.06S
MARSHFIELD     CLEAR     67  61  81 S5        30.05S
RICE LAKE      PTCLDY    68  64  88 SE3       30.00F
$$

...NORTHEAST IOWA...


CITY           SKY/WX    TMP DP  RH WIND       PRES   REMARKS
WATERLOO       CLEAR     73  61  65 S8        29.98F
DUBUQUE        CLEAR     69  62  78 S5        30.05S
DECORAH        CLEAR     70  63  78 SE7       30.01S
MASON CITY     PTCLDY    67  61  81 S8        29.99S
CHARLES CITY   CLEAR     70  64  83 SE8       30.00S
OELWEIN        CLEAR     68  64  88 SE7       30.02F
$$

...ELSEWHERE IN IOWA...


CITY           SKY/WX    TMP DP  RH WIND       PRES   REMARKS
DES MOINES     CLEAR     73  64  73 SE7       29.96S
IOWA CITY      CLEAR     66  62  87 CALM      30.02S
FORT DODGE     CLEAR     73  65  75 SE7       29.96S
MARSHALLTOWN   CLEAR     71  63  75 SE8       29.98S
CEDAR RAPIDS   CLEAR     66  62  87 E6        30.01S
$$

...NORTHERN ILLINOIS...


CITY           SKY/WX    TMP DP  RH WIND       PRES   REMARKS
CHICAGO-OHARE  CLEAR     72  65  78 SE3       30.07S
CHICAGO-MIDWAY CLEAR     76  65  68 SE3       30.07S
MOLINE         CLEAR     70  62  76 CALM      30.02S
ROCKFORD       CLEAR     68  64  87 CALM      30.07S
PEORIA         CLEAR     70  63  78 CALM      30.05S
$$

NOTE: "FAIR" INDICATES FEW OR NO CLOUDS BELOW 12,000 FEET WITH NO
SIGNIFICANT WEATHER AND/OR OBSTRUCTIONS TO VISIBILITY. WIND
SPEEDS ARE IN MILES-PER-HOUR.




USA.gov is the U.S. government's official web portal to all federal, state and local government web resources and services.